Regional Weather Roundup
Issued by NWS Goodland, KS

Home | Current Version | Previous Version | Graphics & Text | Print | Product List | Glossary On
Versions: 1 2 3 4 5 6 7 8 9 10 11 12 13 14 15 16 17 18 19 20 21 22 23 24 25 26 27 28 29 30 31 32 33 34 35 36 37 38 39 40 41 42 43 44 45 46 47 48 49 50
000
ASUS43 KGLD 020208
RWRGLD

GOODLAND FORECAST AREA HOURLY WEATHER ROUNDUP
NATIONAL WEATHER SERVICE GOODLAND KS
700 PM MST SUN MAR 01 2015

...OFFICIAL OBSERVATIONS...

CITY           SKY/WX    TMP DP  RH WIND       PRES   REMARKS
GOODLAND KS    CLOUDY    30  22  72 SE3       30.31R
HILL CITY KS   MOCLDY    31  20  63 S5        30.37R
IMPERIAL NEB     N/A     27  12  53 CALM      30.31R
MCCOOK NEB     CLOUDY    33  10  38 SE5       30.33S
AKRON CO       MOCLDY    27  17  66 CALM      30.27R
BURLINGTON CO  CLOUDY    30  19  63 SE3       30.30R
LIMON CO       CLOUDY    24  17  74 W6        30.25R
$$

...UNOFFICIAL OBSERVATIONS...

CITY           SKY/WX    TMP DP  RH WIND       PRES   REMARKS
COLBY KS       CLOUDY    32  25  74 CALM      30.35R
GOVE KS          N/A     30  32 100 MISG        N/A
LENORA KS        N/A     29  32 100 CALM        N/A
NORTON KS      CLEAR     34  10  37 CALM      30.35R
SHARON SPRINGS   N/A     30  23  75 CALM        N/A
KIT CARSON CO    N/A     28  20  70 MISG        N/A
YUMA CO          N/A     29  18  63 CALM        N/A
$$


USA.gov is the U.S. government's official web portal to all federal, state and local government web resources and services.